GFSGBSN_925_thetae_057.txt.gz
Theta_e
312 312 312 316 320 321 324 324 320 318 317 316 315 312 311 310 308 309 310 311 312 311 310 310 310 309 308 319 322 315 319 318 316 315 315 317 317 316 315 314 314 315 326 325 325 324 324
309 311 311 310 314 318 321 324 323 320 318 316 316 313 310 310 308 309 311 311 312 311 310 310 310 308 318 322 315 319 321 320 319 314 315 316 317 316 316 316 318 318 323 323 322 323 326
307 306 307 310 307 311 317 320 323 322 319 318 316 315 311 310 308 309 311 311 311 310 310 310 309 311 316 316 311 316 317 320 320 318 316 318 319 317 320 319 318 320 321 324 324 325 324
308 307 306 307 309 307 309 316 320 321 322 319 317 316 313 310 308 309 311 312 311 310 310 309 309 313 318 313 318 319 318 318 321 321 320 320 319 319 320 319 317 318 320 321 323 323 324
307 307 307 306 309 308 306 310 316 320 323 320 318 316 314 310 308 309 311 312 311 310 311 309 312 315 322 321 321 318 318 318 320 320 320 318 319 319 320 320 318 319 321 320 320 323 323
306 306 307 305 308 309 306 305 310 315 321 322 319 317 315 311 308 310 311 312 312 311 313 311 314 316 318 321 320 318 318 318 320 320 319 319 319 320 318 317 320 319 320 319 318 322 322
305 306 306 307 304 307 307 307 305 311 317 321 320 317 316 311 308 310 312 311 318 318 315 318 318 318 316 319 320 319 319 318 318 320 321 321 319 321 319 318 319 319 319 319 318 317 319
304 305 305 306 306 304 308 307 306 306 313 319 321 318 316 312 308 311 311 314 318 318 324 320 318 319 317 317 319 319 319 318 319 322 320 318 321 321 321 320 320 319 320 320 319 318 317
303 304 305 305 305 305 308 308 306 304 309 316 321 318 316 311 309 311 312 313 311 314 324 323 322 323 320 316 319 318 317 317 319 321 322 322 323 321 322 323 324 322 322 320 320 319 315
303 303 303 304 305 305 305 308 306 305 306 312 320 318 316 310 310 314 317 317 316 315 326 324 321 323 320 315 319 319 318 316 319 321 321 322 322 321 322 323 322 323 322 323 322 321 319
303 303 302 303 304 305 305 308 307 306 309 310 318 318 315 310 313 316 320 323 318 319 332 325 323 319 314 318 318 318 318 316 317 321 322 323 322 323 322 322 322 323 322 323 323 321 321
300 302 302 302 303 303 305 305 306 306 312 311 317 318 314 310 310 313 317 321 324 331 332 322 320 317 318 318 318 317 316 317 317 318 319 321 320 320 322 321 321 323 322 324 324 324 324
298 300 301 303 302 303 303 306 305 304 304 311 317 318 314 311 315 315 320 322 329 333 322 320 317 318 318 318 318 317 316 316 316 318 320 319 321 320 323 323 321 322 323 326 326 325 327
299 298 298 299 303 303 302 304 305 305 304 307 316 317 314 311 314 316 320 327 332 322 324 319 317 318 318 318 318 318 316 316 315 317 317 322 323 321 321 321 323 322 324 324 329 329 325
297 298 298 298 302 301 303 305 305 304 304 307 316 313 311 313 309 314 323 327 323 324 320 321 317 318 318 318 319 318 316 315 315 315 317 323 324 322 323 322 320 324 328 324 324 325 321
296 296 297 298 302 302 302 303 306 304 304 308 313 312 312 313 309 315 324 323 325 321 322 323 321 318 318 318 318 318 317 317 317 316 318 325 326 324 324 322 320 322 322 323 322 320 322
296 296 297 297 299 301 303 302 307 304 304 308 313 315 314 313 317 319 321 323 322 322 322 323 321 319 318 318 318 318 319 318 317 322 321 322 322 324 324 324 322 321 320 320 319 322 321
296 296 297 297 299 301 301 304 305 304 303 308 315 318 314 315 317 316 319 319 319 323 322 324 321 321 320 318 319 318 319 318 318 321 321 322 323 325 326 323 319 319 320 323 318 321 322
296 296 297 298 299 301 301 304 304 304 303 309 316 317 315 316 313 317 316 319 320 323 322 323 323 322 321 321 321 321 319 324 320 320 321 323 321 319 321 319 321 321 319 318 320 321 322
296 296 297 297 299 299 301 305 305 304 303 311 315 317 319 318 311 314 317 316 319 320 322 323 322 322 322 320 320 322 325 323 323 321 316 321 323 321 320 318 320 322 321 319 319 318 320
296 296 297 298 298 298 299 300 305 305 303 310 313 316 320 323 320 316 315 316 320 321 322 322 322 322 321 321 320 321 325 324 323 317 321 320 320 319 318 319 320 320 321 320 321 320 319
296 296 297 297 298 297 298 298 305 304 304 308 315 318 320 322 321 321 316 316 318 321 322 323 322 322 321 320 320 320 325 325 323 322 322 321 323 322 323 323 320 319 320 319 318 318 318
296 296 297 297 297 298 297 297 305 304 305 306 311 313 318 319 321 321 320 317 319 321 322 322 320 322 323 321 323 323 323 323 323 323 321 323 323 319 323 315 316 314 317 317 318 317 317
296 296 296 296 297 297 296 297 304 304 304 307 310 315 321 319 322 321 318 317 320 321 325 321 319 321 323 322 322 321 320 320 324 324 322 324 323 317 316 313 312 316 316 314 316 314 313
296 296 296 297 297 297 296 299 303 303 304 304 310 315 318 312 320 321 318 318 318 321 323 323 324 325 321 324 324 323 320 317 320 322 321 322 319 318 314 315 318 316 315 314 314 314 313
296 296 296 297 297 298 300 302 303 304 304 304 304 306 315 319 321 319 317 318 321 324 325 325 323 322 324 326 321 322 322 322 323 320 318 320 319 313 314 316 313 316 314 314 313 313 314
296 297 297 297 301 301 301 301 303 303 302 303 303 304 311 321 319 318 317 317 320 323 324 324 324 324 323 312 315 316 317 321 321 321 317 312 312 312 309 312 315 319 314 314 312 313 315
297 297 296 298 300 301 300 302 302 302 303 303 303 306 312 318 320 322 316 320 322 324 322 322 322 325 324 316 317 315 313 318 319 325 319 317 316 313 316 319 317 318 314 313 316 315 314
297 298 298 300 301 300 300 302 302 302 304 302 304 306 307 313 319 321 320 322 322 322 324 320 320 323 323 319 316 316 319 314 317 317 321 321 321 318 317 317 317 317 316 314 313 313 314

GFSGBSN_925_thetae_060.txt.gz
Theta_e
310 311 311 313 313 317 319 320 322 324 320 318 317 316 315 311 309 308 308 310 310 311 311 310 310 309 309 316 318 313 316 317 316 316 314 315 316 316 315 313 312 314 326 326 325 324 326
309 308 308 309 311 311 314 318 320 323 323 320 318 316 316 313 309 308 307 310 311 311 311 310 310 308 316 318 312 319 320 317 317 315 313 314 314 315 315 318 317 320 323 322 322 324 324
309 308 307 306 306 309 307 313 316 320 322 323 320 318 316 315 311 308 307 310 311 311 310 310 309 309 315 311 310 317 315 316 320 318 315 316 316 316 317 320 318 321 323 322 321 323 322
307 307 308 308 307 306 309 307 311 316 319 321 322 319 317 316 313 309 307 309 311 311 310 310 309 311 315 310 317 320 318 318 318 320 318 319 318 318 319 318 316 318 318 320 322 322 323
306 306 306 307 308 307 307 309 306 310 317 320 321 321 318 316 314 309 307 310 311 311 310 311 310 313 319 317 319 316 317 317 318 318 319 318 318 318 317 319 316 317 319 320 324 322 321
305 305 305 306 307 307 305 309 308 305 311 316 320 322 319 316 315 310 308 310 311 313 314 312 313 313 315 318 319 319 316 317 317 319 318 318 316 319 316 315 320 318 319 319 320 323 322
304 305 305 306 306 306 307 304 309 306 305 311 317 321 320 317 315 310 309 311 315 318 313 315 313 312 314 317 317 317 317 317 318 318 319 318 318 318 318 319 320 320 320 319 318 317 322
303 303 305 304 305 306 307 306 304 307 306 306 314 320 321 317 315 309 309 311 314 314 317 317 318 316 316 317 317 315 318 317 319 320 320 319 319 320 321 321 322 322 322 321 318 316 320
302 302 303 303 304 305 305 306 304 308 307 305 311 316 321 317 314 308 310 311 313 312 318 321 320 321 321 321 318 316 317 316 319 319 320 320 320 321 321 322 322 322 322 320 319 318 318
303 301 301 303 303 304 305 305 305 307 308 304 306 314 320 316 310 310 315 318 318 314 321 322 323 322 321 316 314 316 317 316 319 319 320 320 320 321 321 321 321 321 320 321 320 317 315
301 302 300 301 303 303 304 304 305 306 308 305 306 313 319 316 311 313 319 316 318 318 314 320 321 321 318 314 317 317 317 316 318 320 320 320 320 321 321 321 320 322 320 321 321 320 320
299 299 301 299 303 302 302 303 304 305 308 306 307 310 317 314 311 308 311 316 321 326 321 325 322 318 314 314 317 316 316 315 315 319 319 318 319 319 319 320 320 320 321 322 322 321 323
297 298 300 300 301 303 302 303 303 304 305 307 311 311 316 315 311 313 316 320 325 327 322 322 319 315 316 316 317 317 315 315 314 317 318 319 320 319 321 321 320 320 320 322 322 322 324
298 298 298 301 299 301 303 301 302 303 305 305 306 311 316 316 312 314 319 324 326 322 323 321 316 316 317 316 316 316 315 314 314 316 316 319 320 320 320 320 320 323 320 321 324 324 321
297 298 298 298 299 299 302 303 302 303 306 305 304 309 313 317 315 310 320 325 320 324 320 319 316 317 317 317 317 316 315 314 314 313 316 320 323 322 321 321 319 321 323 323 325 322 321
297 297 298 297 300 299 298 300 301 302 304 305 308 312 313 315 315 311 323 319 321 321 321 322 320 317 317 317 316 316 316 315 314 314 314 320 324 322 322 321 319 319 320 324 323 319 319
297 297 297 298 297 298 299 298 301 303 304 305 308 313 314 314 311 314 320 319 319 319 321 324 323 319 317 317 316 316 317 316 315 317 317 320 319 319 323 322 320 319 319 320 319 318 319
298 297 297 297 298 297 297 296 300 301 305 305 308 315 314 313 315 311 318 318 315 319 320 322 323 322 318 316 317 317 317 317 317 319 320 320 320 322 322 321 321 318 319 319 318 318 319
298 297 297 297 297 297 297 297 300 301 305 306 311 314 313 315 316 312 314 318 317 317 320 322 323 322 319 319 318 317 317 321 319 319 319 320 320 320 322 319 318 321 317 318 319 316 317
298 297 297 297 296 296 297 298 300 303 305 306 312 315 316 315 313 311 313 316 319 316 317 319 321 322 321 321 319 318 322 322 321 319 317 318 320 318 322 319 317 320 320 317 316 315 317
298 297 297 297 296 297 298 299 300 301 305 305 312 315 315 318 316 313 312 314 317 318 316 320 321 321 322 321 319 319 324 322 322 316 319 318 319 319 317 318 320 320 320 320 319 318 318
299 298 297 297 297 297 297 299 300 301 305 305 313 316 315 316 315 314 312 313 315 315 316 316 319 322 321 319 317 318 323 322 320 320 319 319 318 318 320 317 317 318 317 317 318 317 317
299 298 297 297 297 297 297 299 301 301 305 305 305 309 314 314 316 316 314 313 314 314 316 315 320 322 321 321 317 316 320 321 320 319 319 320 320 316 319 313 316 316 316 316 317 316 316
299 297 297 297 297 297 298 299 299 300 304 305 305 311 317 317 319 318 315 315 314 314 314 318 315 319 320 319 318 317 317 321 321 321 319 320 319 313 314 311 316 318 315 315 314 312 312
298 297 297 297 297 298 298 298 299 299 300 304 305 308 316 312 319 320 317 318 316 314 317 315 320 319 319 321 321 319 317 318 321 318 319 320 315 316 313 315 316 316 315 310 312 313 312
298 297 297 297 298 298 298 299 297 297 299 304 305 308 311 318 318 319 320 317 317 317 318 322 322 320 322 321 317 320 320 319 322 318 316 317 313 315 315 312 313 314 313 312 310 312 314
298 297 297 297 297 298 298 297 295 297 298 304 303 305 306 315 318 317 319 318 316 316 319 324 323 323 319 312 316 315 318 319 320 318 313 311 311 312 306 307 310 312 314 312 311 310 313
297 297 297 297 297 297 297 295 296 297 303 304 303 304 304 312 313 320 316 315 315 315 320 320 321 319 318 317 317 317 311 317 317 319 315 315 314 312 310 306 315 314 313 313 310 312 314
297 297 297 297 297 297 297 297 297 303 303 303 303 303 304 307 311 311 314 320 316 315 320 318 320 320 320 318 314 315 317 309 314 319 318 318 313 314 315 314 312 314 314 312 312 312 313

GFSGBSN_925_thetae_063.txt.gz
Theta_e
310 310 309 310 311 313 314 317 317 319 321 323 321 319 317 315 315 311 308 307 308 310 311 311 309 309 309 313 311 311 317 318 317 316 314 314 315 315 315 314 313 311 324 325 325 324 324
308 308 309 309 308 308 311 311 312 316 320 322 323 321 318 317 315 314 310 308 307 310 311 311 309 309 314 311 310 318 320 318 316 315 313 313 314 314 315 315 317 320 321 321 322 322 324
307 307 308 308 309 308 305 307 308 311 315 320 321 322 321 318 316 315 312 308 307 309 311 311 309 309 314 309 310 317 315 315 315 317 313 313 314 316 316 318 318 320 322 322 323 323 321
306 306 306 307 307 308 308 306 307 308 311 316 319 320 321 320 317 315 314 309 307 309 311 310 310 310 311 309 313 317 318 318 318 317 317 317 317 316 317 317 315 317 318 323 321 321 322
305 306 306 306 307 307 308 308 305 309 307 310 317 319 320 321 318 316 315 309 307 309 311 310 310 312 316 313 315 317 319 318 317 317 317 318 317 316 316 317 314 314 317 321 323 321 320
304 305 305 305 305 306 306 307 307 307 309 305 312 316 319 321 319 316 315 307 309 315 313 312 312 310 309 316 317 317 318 317 316 317 317 317 315 316 314 314 318 318 317 318 321 319 321
306 303 304 304 305 305 306 306 307 306 308 306 306 312 316 319 320 316 314 308 311 316 313 314 311 308 309 316 318 316 316 316 317 317 318 317 316 317 317 317 319 320 320 319 318 315 321
302 304 304 303 304 304 305 306 307 307 304 307 306 307 314 319 320 316 312 310 310 312 313 314 315 314 314 316 319 317 316 315 318 318 318 318 318 317 320 319 321 321 321 320 318 316 318
301 300 302 304 303 303 304 305 305 307 306 305 307 305 312 318 319 315 310 309 312 314 313 317 317 318 318 318 320 319 315 316 317 318 318 318 319 319 320 321 321 320 321 320 320 316 317
299 298 299 301 304 302 302 303 304 305 305 305 308 305 309 318 316 311 312 315 314 315 315 317 323 320 319 319 315 316 316 316 318 318 317 318 318 320 320 320 320 321 319 319 319 315 317
299 299 298 299 301 302 301 303 303 305 305 305 308 304 308 317 311 312 317 313 315 316 311 313 321 318 318 313 315 314 316 315 317 319 318 318 320 320 320 319 318 319 319 320 320 319 318
299 299 298 299 299 300 301 301 302 303 304 305 308 305 308 315 315 316 312 309 318 324 318 319 320 319 316 314 315 315 315 314 315 318 319 316 317 318 317 319 318 319 321 319 318 319 320
300 299 299 298 299 300 301 300 302 302 304 305 307 307 309 314 313 315 314 318 326 325 316 322 321 316 317 314 314 316 314 314 314 316 318 318 319 318 320 320 318 318 318 319 320 320 321
301 300 299 298 298 299 301 300 301 302 303 304 306 309 312 312 315 313 317 325 324 319 320 321 317 315 314 315 315 316 313 313 313 314 314 317 318 318 318 319 319 321 318 319 322 321 319
302 301 299 298 298 299 298 301 299 302 302 303 305 307 308 313 314 313 318 325 318 319 321 314 315 315 315 316 315 315 313 312 312 312 315 318 319 321 321 320 317 321 322 320 321 318 321
303 302 300 298 298 299 299 300 299 300 301 303 306 307 308 311 315 312 318 321 320 319 321 321 316 315 315 315 316 315 314 314 314 312 313 316 319 321 321 321 319 318 319 322 320 320 319
304 302 301 299 298 299 299 299 300 299 301 303 306 308 309 312 314 313 317 316 318 317 318 323 323 322 316 315 315 315 315 315 313 314 313 317 316 317 321 320 319 320 319 318 318 316 319
304 303 301 299 298 299 298 298 299 298 301 304 306 308 311 312 316 315 314 316 315 316 315 320 321 323 322 315 315 315 316 316 313 316 315 317 315 316 319 319 319 317 317 317 317 318 317
304 303 301 299 298 299 298 297 299 298 301 304 306 308 312 312 317 316 313 314 316 316 316 318 322 321 320 316 316 316 316 316 317 316 318 318 317 318 318 317 319 321 317 318 317 313 317
304 303 301 300 299 298 299 298 298 298 298 304 306 309 314 313 314 315 314 315 316 316 316 317 319 320 322 321 318 317 318 321 319 318 317 316 317 318 319 318 317 320 319 316 316 316 316
303 303 301 300 299 298 299 298 297 296 296 301 305 308 312 314 314 316 313 313 316 318 316 315 316 318 321 322 318 318 322 321 320 316 318 316 319 317 316 316 317 318 318 317 317 316 317
304 304 301 300 299 298 298 298 298 296 296 299 305 311 312 312 313 315 314 313 315 315 315 316 316 320 316 320 319 318 322 320 320 319 318 317 316 316 318 316 316 319 317 316 316 317 316
304 304 301 300 299 298 298 298 296 296 298 299 304 305 310 313 314 314 314 313 313 314 315 314 314 317 316 320 319 316 317 318 318 318 317 317 317 314 317 314 315 315 314 315 316 315 315
304 303 301 300 299 298 298 297 298 298 298 303 303 306 314 312 314 313 313 313 313 313 314 315 313 314 315 317 316 316 317 319 319 319 317 317 315 310 313 312 315 315 314 314 314 312 310
305 303 301 300 299 298 298 298 298 298 297 301 303 306 313 309 313 315 313 312 312 312 314 313 314 311 315 320 318 320 316 319 319 318 320 317 312 312 313 315 315 318 315 312 311 312 312
304 302 300 299 298 297 298 298 298 298 299 300 304 305 308 314 314 314 314 313 312 313 313 313 312 320 319 318 315 319 321 322 323 318 315 314 312 314 308 313 316 316 314 311 309 311 312
302 301 300 299 298 297 298 298 299 299 301 300 303 306 306 312 313 315 316 315 313 314 314 314 321 323 317 310 313 313 317 319 319 318 314 312 310 313 306 308 313 311 312 310 311 311 311
301 300 299 298 297 298 298 298 298 298 299 300 300 305 305 309 309 314 315 315 315 315 316 316 322 319 315 316 315 314 311 317 316 316 314 317 315 310 305 305 318 311 312 311 309 313 314
299 299 298 298 298 298 298 299 299 299 298 298 300 303 304 305 308 307 308 311 314 314 314 317 317 319 318 317 313 314 315 310 314 318 315 316 314 315 314 314 312 312 311 311 310 312 313

GFSGBSN_925_thetae_069.txt.gz
Theta_e
306 306 307 307 307 308 308 308 308 308 310 312 313 315 318 320 320 321 320 318 316 315 313 308 307 310 309 309 309 309 316 317 314 313 313 313 315 316 317 315 313 312 316 322 322 324 324
307 306 306 306 306 307 307 308 308 308 307 305 309 310 315 318 319 319 320 320 319 316 314 311 307 309 310 309 308 314 315 315 315 315 313 312 314 314 316 316 317 318 322 324 325 325 324
304 306 306 305 306 306 306 306 307 308 308 308 305 308 311 315 318 317 318 319 320 318 315 314 307 310 312 310 309 311 318 314 315 315 314 312 312 315 316 318 318 321 325 322 324 324 324
303 303 304 305 305 305 305 306 306 306 307 307 306 307 307 311 316 316 317 318 320 319 316 310 310 310 310 309 308 309 310 313 314 316 315 315 314 315 317 316 316 321 320 324 321 322 321
302 303 303 303 303 305 304 305 305 305 306 307 307 306 308 306 314 315 316 317 319 318 310 312 310 309 311 310 309 313 311 313 316 315 315 315 315 316 316 318 318 316 320 321 320 321 320
301 302 302 303 302 303 305 304 304 305 305 306 306 307 306 306 308 313 316 316 317 310 312 311 312 312 311 311 313 316 316 316 315 316 316 316 316 317 315 317 321 320 319 319 320 319 320
302 301 302 301 303 302 302 305 304 304 305 305 306 307 305 306 306 312 316 317 306 312 313 316 313 311 309 313 316 316 315 316 316 317 319 316 320 322 319 317 316 318 319 320 319 317 318
302 301 301 301 301 302 304 303 305 304 304 304 305 306 307 305 306 311 316 312 308 311 315 313 312 312 313 314 317 316 314 316 316 317 318 318 320 317 316 317 319 320 321 321 319 317 318
303 302 302 301 301 301 301 303 303 304 303 304 304 305 306 306 306 312 316 315 311 310 316 318 314 313 313 313 315 315 313 314 316 316 319 320 319 316 319 320 320 320 321 320 320 317 317
302 303 302 302 301 301 300 300 300 301 304 302 303 305 305 307 308 314 313 311 314 312 316 313 315 316 316 315 316 315 313 316 316 318 317 318 316 318 320 320 320 321 319 319 320 319 320
300 301 303 303 302 301 300 300 300 299 300 301 302 303 305 306 311 310 312 314 315 312 310 310 319 315 316 315 314 317 313 315 318 317 318 319 319 319 320 320 318 321 318 320 320 319 318
300 301 301 303 302 302 301 300 300 298 298 300 302 303 305 307 307 312 313 315 316 323 319 313 319 319 319 317 313 312 315 314 314 318 318 316 315 318 320 318 317 318 320 318 318 320 324
300 301 301 302 303 302 302 301 300 299 297 299 302 302 304 307 309 311 312 314 324 322 315 314 322 318 318 316 312 314 315 316 318 320 320 317 318 317 317 319 318 318 320 323 323 325 325
301 301 301 301 302 302 302 302 300 300 299 299 301 302 303 305 306 310 313 318 325 318 317 316 316 317 316 313 313 313 314 317 312 315 316 319 318 318 317 319 320 319 320 325 321 322 321
302 302 302 302 301 301 302 302 301 300 299 300 301 300 302 304 306 309 315 320 318 318 316 316 314 319 318 313 313 314 316 317 315 314 318 317 317 317 318 318 319 321 322 317 321 318 324
302 302 302 302 302 302 302 302 302 300 300 299 301 302 302 303 306 310 316 316 318 316 319 320 322 316 320 315 314 315 314 313 315 313 314 317 318 319 320 319 318 320 320 324 321 323 322
302 302 303 302 302 302 302 303 302 301 300 297 301 303 303 303 306 311 315 315 315 316 317 319 323 323 315 315 315 314 315 313 314 313 313 315 317 316 320 322 322 321 321 318 319 320 323
302 302 302 303 302 302 303 303 302 301 299 299 301 303 303 303 309 310 312 313 312 315 316 318 317 321 322 315 315 315 316 316 312 313 315 317 318 318 320 317 316 318 320 321 326 321 319
303 303 303 303 302 302 303 303 303 301 299 300 303 302 304 305 308 310 310 312 313 314 316 316 317 318 320 319 315 315 315 314 311 314 317 317 316 318 317 317 318 321 318 317 317 317 321
303 303 303 303 303 302 302 303 302 301 299 300 302 303 305 306 306 308 311 312 314 313 314 315 316 317 318 319 318 315 315 315 313 314 314 316 317 318 319 317 318 321 320 318 320 323 323
303 304 304 304 303 303 302 303 302 300 299 300 302 305 305 307 306 307 309 311 312 314 314 315 316 318 319 318 319 317 317 320 317 317 316 318 319 317 315 313 316 318 319 318 320 320 323
301 302 303 304 304 303 303 304 302 300 299 300 302 305 305 308 306 306 309 311 313 313 313 315 317 316 316 320 320 318 318 320 319 316 318 315 319 316 317 315 316 317 316 316 317 316 316
301 301 302 302 304 304 303 304 302 300 300 301 300 300 303 307 308 306 306 309 313 313 313 313 314 315 317 315 316 315 315 316 318 318 317 316 318 318 320 315 317 319 318 318 317 316 318
302 301 301 302 302 304 302 303 301 300 299 301 300 301 305 306 309 308 306 308 311 313 313 314 314 314 313 314 314 314 316 316 317 316 317 317 317 315 320 313 323 320 314 315 317 316 314
302 302 301 301 301 304 302 302 301 300 299 299 299 300 305 306 307 309 308 306 311 312 312 313 314 313 313 315 316 315 315 318 318 317 316 315 315 316 322 320 317 315 315 316 317 316 314
304 302 301 301 300 304 302 302 301 300 300 299 298 299 303 306 308 309 310 307 310 312 312 312 311 312 313 313 315 318 315 320 323 319 313 312 312 321 313 321 322 318 313 311 312 318 313
303 301 300 301 299 303 303 302 301 300 300 298 298 299 301 307 306 308 310 310 308 311 311 311 312 315 315 309 313 316 321 320 324 322 320 317 314 319 314 321 318 314 311 310 321 320 311
301 301 301 301 299 303 302 301 301 300 300 298 297 300 300 302 304 305 308 310 309 310 311 309 313 314 313 314 314 315 316 319 321 319 319 321 320 320 314 319 323 312 309 316 317 310 310
300 301 301 299 303 303 302 301 300 300 300 298 297 297 299 301 304 304 305 305 307 309 310 312 312 313 314 315 312 313 315 313 319 321 315 323 320 321 319 322 317 311 315 311 310 313 312

GFSGBSN_925_thetae_072.txt.gz
Theta_e
307 307 307 306 306 306 307 307 308 308 308 308 307 307 310 313 316 318 319 317 319 320 319 317 314 311 311 314 314 310 311 317 315 315 316 317 318 320 320 320 320 320 320 325 322 326 328
304 304 305 307 306 306 306 306 306 306 307 307 308 307 306 309 313 315 318 317 317 318 319 319 316 311 313 314 310 314 316 316 316 316 316 317 319 319 320 321 321 323 326 328 328 328 327
304 303 303 303 304 305 305 305 305 306 306 307 307 307 306 308 309 314 315 315 316 317 319 319 316 311 313 313 310 314 315 316 317 317 318 316 316 320 321 321 323 325 327 327 328 327 326
302 303 303 303 303 303 304 305 305 305 305 305 306 307 307 306 307 309 314 314 314 317 317 317 311 314 313 312 311 310 312 317 316 316 316 318 316 320 321 320 323 325 325 324 325 325 325
303 302 303 302 302 302 303 303 305 304 305 305 305 306 307 306 307 306 311 313 314 316 315 311 314 314 314 311 312 312 312 315 317 317 318 316 319 321 321 321 324 323 322 321 323 323 324
304 303 303 302 302 302 301 302 303 303 304 304 305 305 306 307 305 305 308 311 315 313 312 313 314 316 314 314 314 316 315 313 318 319 319 320 321 322 321 321 322 321 321 321 322 322 323
305 304 304 303 302 302 303 302 302 302 304 304 304 305 306 306 305 305 311 316 315 316 315 317 316 315 314 314 317 317 318 318 318 320 322 321 323 323 320 320 320 320 321 321 321 321 322
302 302 303 303 303 303 302 302 302 303 303 304 304 304 304 306 305 306 311 315 317 313 316 313 314 315 315 315 318 320 316 318 319 321 321 322 323 322 320 320 321 321 321 322 321 321 321
300 300 300 302 303 303 303 302 301 301 301 303 304 303 304 305 306 307 312 315 313 312 318 317 317 316 315 314 315 318 318 318 319 320 321 321 321 320 321 321 322 321 322 322 321 322 322
300 300 300 301 302 302 302 302 301 301 300 300 302 303 303 304 305 310 314 314 316 313 318 314 315 317 315 314 316 315 318 317 318 320 319 320 320 320 321 321 322 323 322 322 322 323 323
300 300 300 300 301 302 302 302 302 300 300 299 300 301 302 304 309 313 314 316 313 316 309 313 317 316 316 314 315 316 317 318 319 319 320 320 320 321 321 322 322 322 321 323 323 324 323
300 300 300 300 300 300 302 302 302 301 300 300 298 299 302 304 307 310 313 315 317 324 312 313 319 320 318 316 316 317 317 318 319 319 320 320 320 321 321 321 321 321 323 324 324 324 325
299 299 300 301 301 301 301 302 302 302 301 300 297 297 302 304 308 309 311 316 322 320 313 312 321 320 319 316 316 317 318 319 320 321 321 320 320 320 321 322 321 322 324 326 327 326 325
300 300 301 301 301 301 301 301 302 302 301 300 299 297 301 304 306 309 313 320 321 310 315 316 316 320 320 316 316 318 318 319 319 319 319 321 321 320 320 321 321 323 324 325 323 324 323
300 301 301 301 301 302 302 301 302 302 302 300 299 299 301 303 304 307 315 319 311 311 314 314 314 322 320 315 316 318 319 319 319 320 319 320 319 319 320 321 321 324 324 323 325 324 325
301 301 302 302 302 302 302 302 301 301 302 301 300 301 302 301 303 307 311 315 311 312 314 319 313 318 324 316 316 317 318 318 319 319 319 319 319 319 322 321 321 323 323 324 324 324 323
301 301 302 302 302 302 302 302 302 302 302 301 300 303 302 302 302 308 311 311 311 313 315 318 322 318 319 319 315 317 317 316 318 318 319 319 320 323 323 323 322 324 324 323 323 323 324
301 301 302 302 302 303 302 302 302 302 302 301 301 303 302 302 304 307 310 309 310 311 317 319 320 323 324 317 318 315 317 317 317 318 319 319 320 321 321 321 321 322 322 324 323 323 324
302 301 301 302 302 302 303 302 302 302 302 301 302 303 303 303 306 307 309 310 310 313 313 318 319 319 321 324 318 318 317 317 316 318 319 319 320 321 320 320 321 322 322 323 323 323 322
302 302 302 302 302 303 303 303 302 302 302 301 302 303 304 304 306 307 308 310 311 310 313 315 317 318 320 320 321 319 318 317 316 318 319 319 320 320 321 318 318 320 319 320 321 324 321
300 299 301 302 302 302 303 303 302 302 302 300 303 305 304 306 305 307 308 308 309 311 312 314 317 318 319 320 321 320 317 320 316 316 317 320 320 320 319 317 317 318 318 319 320 320 320
299 300 300 299 303 302 303 303 303 302 302 300 302 306 306 307 308 307 308 309 309 310 312 312 315 317 319 320 318 320 319 318 322 320 320 320 320 320 320 319 319 319 319 319 320 320 321
300 300 300 301 301 302 303 303 303 303 301 299 302 302 306 307 308 308 307 308 309 310 312 311 313 313 317 318 319 317 317 318 319 321 322 322 321 321 321 320 320 323 321 320 321 321 321
301 301 301 301 301 302 304 303 303 303 301 300 301 304 306 307 308 308 307 306 307 310 311 312 313 315 315 316 314 313 314 314 316 317 320 323 322 323 322 321 331 320 319 320 321 321 321
301 302 302 302 301 302 303 304 303 303 301 300 300 304 305 308 306 307 307 307 306 308 311 312 313 313 314 314 314 314 314 312 312 314 320 322 323 325 332 324 320 319 316 320 320 321 320
302 302 302 303 301 302 303 304 303 303 301 300 301 302 305 308 307 306 308 308 308 309 312 314 313 315 316 317 317 315 314 312 318 323 318 319 321 326 322 334 333 320 319 318 318 323 320
302 300 303 303 302 302 302 304 302 303 301 300 301 301 304 306 306 306 308 310 308 309 314 314 315 316 316 320 322 324 316 313 317 324 324 322 322 328 327 334 324 320 316 317 322 323 319
299 300 304 303 302 302 302 303 302 302 300 300 301 301 304 305 306 307 307 309 310 310 314 312 315 316 319 320 322 322 324 320 317 316 322 324 326 328 326 335 332 316 314 320 322 320 319
302 302 304 303 302 301 301 303 303 302 300 300 300 300 301 304 306 305 305 306 307 309 312 314 313 315 316 317 321 318 325 324 320 321 320 325 324 325 324 325 324 317 320 318 319 320 318

GFSGBSN_925_thetae_075.txt.gz
Theta_e
305 306 306 306 307 307 306 307 307 306 306 307 307 308 308 305 307 310 313 315 317 317 316 318 319 319 314 317 318 315 314 313 315 317 318 318 318 319 321 321 321 320 319 320 324 323 327
305 304 304 303 304 305 307 306 306 306 306 306 306 307 307 307 306 307 309 314 316 315 315 317 318 318 317 317 314 315 318 321 319 318 318 319 321 321 321 321 321 322 322 324 325 326 327
303 303 304 303 303 303 304 304 305 305 305 305 305 306 306 307 307 306 307 309 313 311 313 316 316 315 317 318 314 314 316 319 319 318 319 319 319 320 322 321 322 325 324 324 325 325 326
303 304 303 303 302 302 302 303 303 304 305 305 305 305 305 306 307 306 306 305 309 311 313 315 315 315 318 314 314 313 314 319 319 319 319 320 320 321 321 322 322 325 325 325 328 326 325
305 304 304 304 303 302 301 302 302 303 304 305 304 305 305 305 306 307 305 304 305 310 315 314 315 318 316 313 314 313 313 317 320 320 320 320 321 322 323 321 322 324 324 325 325 322 324
306 307 305 305 304 302 302 301 301 301 302 303 304 304 305 305 306 306 305 303 308 314 315 315 315 317 315 315 315 314 313 315 320 321 322 321 322 323 323 322 323 324 326 322 320 323 323
303 303 305 306 304 304 304 303 303 302 302 302 303 304 304 304 305 306 306 311 316 320 317 316 317 315 315 314 316 317 315 316 320 322 323 322 323 323 323 323 321 322 322 322 322 322 322
302 302 302 302 303 304 304 304 303 302 301 302 303 304 304 304 305 306 307 312 313 316 315 313 314 315 316 317 319 318 317 318 320 322 322 323 323 322 323 321 320 321 322 322 323 322 322
301 301 301 302 302 302 304 304 304 303 302 300 302 302 304 304 304 305 308 311 314 316 318 314 315 315 313 314 317 319 318 319 320 321 321 323 322 322 322 321 321 322 323 323 324 323 323
300 300 301 301 302 302 301 301 302 302 302 300 300 300 301 303 304 308 311 313 315 318 317 312 318 318 316 314 316 316 318 318 319 320 321 322 321 321 321 322 322 323 323 322 323 323 326
299 300 300 300 300 300 300 300 301 302 302 302 299 299 299 302 305 311 316 316 318 319 310 315 316 316 316 316 314 315 316 318 318 320 320 321 321 322 322 322 322 323 323 323 324 325 324
299 299 300 300 300 300 301 301 300 301 302 302 301 298 300 301 303 305 309 316 319 318 311 314 319 318 319 316 315 316 316 319 318 319 320 320 320 321 322 322 322 323 323 324 325 325 327
299 299 299 299 300 301 300 301 301 300 302 302 301 300 298 301 305 307 308 312 317 311 311 313 318 320 320 318 315 317 316 320 319 320 321 320 321 321 321 323 323 323 325 328 328 328 328
298 299 299 300 300 301 301 301 301 301 301 302 301 300 300 300 303 305 308 315 312 309 311 317 317 322 321 318 317 317 318 320 319 319 321 321 322 321 322 323 324 323 324 327 331 328 326
299 300 300 300 300 300 301 301 302 302 301 302 302 302 301 301 303 304 309 317 313 310 311 311 317 320 323 321 317 317 318 318 319 319 321 321 321 321 321 321 322 324 325 324 327 325 326
300 300 300 300 300 301 301 301 302 301 301 301 303 302 302 302 304 305 308 312 311 310 309 312 314 316 320 322 317 317 318 318 319 319 320 320 321 320 321 321 321 323 324 325 325 326 330
301 301 301 301 301 301 301 301 301 302 301 301 302 304 303 302 304 307 308 311 312 311 310 312 315 316 316 323 318 317 318 318 318 319 320 320 321 321 321 322 322 323 324 324 324 325 327
301 301 301 302 302 302 302 302 301 302 302 302 302 305 303 303 306 306 307 309 310 311 312 312 314 318 316 317 321 317 317 318 318 319 320 320 321 322 321 321 321 322 323 323 325 324 324
301 301 301 302 302 302 302 302 302 302 302 302 302 303 303 304 306 306 306 308 309 310 311 314 317 318 321 319 321 320 318 318 317 319 320 320 320 322 322 321 322 322 323 323 324 324 324
301 302 301 301 302 302 302 302 302 302 302 302 301 304 306 306 305 307 306 307 308 308 311 311 315 315 317 321 321 320 320 318 319 318 320 322 320 321 324 321 321 321 320 321 322 329 326
301 301 300 300 300 301 302 302 302 302 302 302 302 306 306 306 306 308 307 306 308 309 309 311 312 315 317 317 318 318 321 319 317 316 319 321 321 320 319 319 319 319 319 319 320 321 324
299 299 299 300 300 300 301 302 302 303 303 302 302 305 305 306 306 307 307 307 307 308 308 310 314 313 315 315 319 315 317 320 320 320 319 321 323 321 320 319 319 318 318 318 318 319 319
299 299 299 299 299 300 300 301 302 302 303 302 301 303 306 306 307 308 309 308 307 307 309 310 311 313 315 315 319 319 318 318 318 320 322 322 324 322 324 320 320 325 319 319 319 319 320
299 299 299 299 300 300 300 299 303 303 303 301 302 304 308 307 307 308 307 307 307 307 309 309 311 313 313 315 317 316 316 316 316 315 317 323 323 325 328 326 329 321 320 320 320 319 320
300 300 300 300 300 300 301 300 300 302 303 302 302 305 307 310 307 306 308 307 307 308 309 311 310 312 313 316 317 316 315 317 315 315 316 317 324 326 331 328 322 319 319 320 320 320 320
300 301 301 302 301 301 301 301 300 303 303 302 302 304 307 309 309 306 308 308 308 308 309 311 312 314 317 316 317 315 316 311 310 317 319 316 322 329 328 328 329 322 320 320 320 325 320
301 302 302 302 302 302 301 301 301 302 302 302 302 304 307 307 306 306 307 309 308 309 311 309 312 315 316 318 322 321 317 311 312 320 324 325 324 330 330 332 323 320 320 320 324 324 320
301 302 302 302 302 302 302 301 300 304 302 302 301 303 306 307 306 306 308 308 309 310 311 309 314 316 319 320 321 317 319 314 314 312 317 326 326 330 329 336 332 320 319 321 323 324 322
300 300 302 302 302 303 302 302 301 303 302 301 302 303 304 307 306 308 308 309 309 309 309 311 314 314 315 317 320 318 324 327 316 319 313 324 323 326 325 326 323 320 321 322 321 323 323